Location: Alpino
(32.5215°N, 116.5815°W)
Time: 08:49:00
(UTC+00:00)

Iridium 51 - Pass Details

Date: 13 April 2024
Orbit: 435 x 635 km, 86.4° (Epoch: 22 May)

Event Time Altitude Azimuth Distance (km) Brightness Sun altitude
Exits shadow 12:20:05 16° 216° (SW) 1,243 5.6 -12.7°
Maximum altitude 12:22:17 34° 274° (W) 761 4.6 -12.3°
Drops below altitude 10° 12:25:22 10° 341° (NNW) 1,554 6.6 -11.7°
Sets 12:27:31 0° 351° (N) 2,419 7.7 -11.2°
